• In Spain
  • List of Countries
  • For 7 days
  • Water Temperature
  • Satellite Maps
  • Weather Map
  • Weather Widgets
  • user-avatar
    Login

    Hourly Weather Oran

    Today, 22 July, Sunday

    Time Temperature Precipitation Wind Pressure Humidity
    00:00 +31°C° 0 mm 2 mps 749 mmHg 32%
    01:00 +31°C° 0 mm 2 mps 749 mmHg 33%
    02:00 +30°C° 0 mm 2 mps 749 mmHg 35%
    03:00 +30°C° 0 mm 2 mps 749 mmHg 36%
    04:00 +29°C° 0 mm 1 mps 749 mmHg 38%
    05:00 +29°C° 0 mm 1 mps 749 mmHg 39%
    06:00 +29°C° 0 mm 1 mps 749 mmHg 40%
    07:00 +30°C° 0 mm 1 mps 749 mmHg 37%
    08:00 +31°C° 0 mm 1 mps 749 mmHg 34%
    09:00 +32°C° 0 mm 1 mps 749 mmHg 31%
    10:00 +34°C° 0 mm 2 mps 749 mmHg 29%
    11:00 +35°C° 0 mm 2 mps 749 mmHg 27%
    12:00 +36°C° 0 mm 3 mps 750 mmHg 25%
    13:00 +36°C° 0 mm 3 mps 749 mmHg 25%
    14:00 +36°C° 0 mm 3 mps 749 mmHg 25%
    15:00 +37°C° 0 mm 3 mps 749 mmHg 25%
    16:00 +36°C° 0 mm 3 mps 749 mmHg 26%
    17:00 +35°C° 0 mm 3 mps 749 mmHg 28%
    18:00 +34°C° 0 mm 2 mps 749 mmHg 29%
    19:00 +32°C° 0 mm 2 mps 749 mmHg 31%
    20:00 +32°C° 0 mm 2 mps 750 mmHg 34%
    21:00 +31°C° 0 mm 2 mps 751 mmHg 37%
    22:00 +30°C° 0 mm 1 mps 751 mmHg 38%
    23:00 +30°C° 0 mm 1 mps 751 mmHg 40%

    Tomorrow, 23 July, Monday

    Time Temperature Precipitation Wind Pressure Humidity
    00:00 +29°C° 0 mm 1 mps 751 mmHg 42%
    01:00 +29°C° 0 mm 1 mps 751 mmHg 44%
    02:00 +28°C° 0 mm 1 mps 751 mmHg 46%
    03:00 +28°C° 0 mm 2 mps 751 mmHg 48%
    04:00 +28°C° 0 mm 2 mps 751 mmHg 50%
    05:00 +27°C° 0 mm 2 mps 751 mmHg 52%
    06:00 +27°C° 0 mm 2 mps 751 mmHg 54%
    07:00 +29°C° 0 mm 2 mps 751 mmHg 48%
    08:00 +30°C° 0 mm 2 mps 751 mmHg 41%
    09:00 +32°C° 0 mm 2 mps 751 mmHg 35%
    10:00 +35°C° 0 mm 3 mps 751 mmHg 32%
    11:00 +36°C° 0 mm 3 mps 751 mmHg 29%
    12:00 +37°C° 0 mm 4 mps 751 mmHg 25%
    13:00 +38°C° 0 mm 4 mps 751 mmHg 25%
    14:00 +38°C° 0 mm 4 mps 750 mmHg 25%
    15:00 +40°C° 0 mm 4 mps 750 mmHg 25%
    16:00 +38°C° 0 mm 4 mps 750 mmHg 27%
    17:00 +37°C° 0 mm 4 mps 750 mmHg 29%
    18:00 +36°C° 0 mm 3 mps 750 mmHg 30%
    19:00 +35°C° 0 mm 3 mps 750 mmHg 33%
    20:00 +34°C° 0 mm 2 mps 751 mmHg 36%
    21:00 +32°C° 0 mm 2 mps 751 mmHg 39%
    22:00 +32°C° 0 mm 2 mps 751 mmHg 41%
    23:00 +31°C° 0 mm 2 mps 751 mmHg 44%

    Day after tomorrow, 24 July, Tuesday

    Time Temperature Precipitation Wind Pressure Humidity
    00:00 +30°C° 0 mm 2 mps 750 mmHg 46%
    01:00 +29°C° 0 mm 2 mps 750 mmHg 49%
    02:00 +29°C° 0 mm 1 mps 750 mmHg 52%
    03:00 +28°C° 0 mm 1 mps 750 mmHg 55%
    04:00 +28°C° 0 mm 1 mps 750 mmHg 56%
    05:00 +28°C° 0 mm 1 mps 750 mmHg 57%
    06:00 +28°C° 0 mm 1 mps 750 mmHg 57%
    07:00 +29°C° 0 mm 1 mps 750 mmHg 51%
    08:00 +31°C° 0 mm 1 mps 750 mmHg 45%
    09:00 +32°C° 0 mm 2 mps 751 mmHg 39%
    10:00 +34°C° 0 mm 2 mps 751 mmHg 36%
    11:00 +36°C° 0 mm 3 mps 750 mmHg 33%
    12:00 +37°C° 0 mm 3 mps 750 mmHg 31%
    13:00 +37°C° 0 mm 3 mps 750 mmHg 31%
    14:00 +37°C° 0 mm 3 mps 750 mmHg 31%
    15:00 +37°C° 0 mm 3 mps 749 mmHg 31%
    16:00 +36°C° 0 mm 3 mps 749 mmHg 31%
    17:00 +36°C° 0 mm 3 mps 749 mmHg 31%
    18:00 +35°C° 0 mm 2 mps 749 mmHg 31%
    19:00 +35°C° 0 mm 2 mps 749 mmHg 33%
    20:00 +34°C° 0 mm 2 mps 750 mmHg 34%
    21:00 +32°C° 0 mm 2 mps 750 mmHg 35%
    22:00 +32°C° 0 mm 2 mps 750 mmHg 36%
    23:00 +31°C° 0 mm 2 mps 750 mmHg 37%

    25 July, Wednesday

    Time Temperature Precipitation Wind Pressure Humidity
    00:00 +31°C° 0 mm 2 mps 750 mmHg 38%
    01:00 +30°C° 0 mm 2 mps 749 mmHg 39%
    02:00 +30°C° 0 mm 2 mps 749 mmHg 40%
    03:00 +30°C° 0 mm 2 mps 749 mmHg 41%
    04:00 +30°C° 0 mm 2 mps 749 mmHg 40%
    05:00 +30°C° 0 mm 2 mps 749 mmHg 40%
    06:00 +30°C° 0 mm 2 mps 749 mmHg 39%
    07:00 +31°C° 0 mm 3 mps 749 mmHg 35%
    08:00 +34°C° 0 mm 3 mps 750 mmHg 31%
    09:00 +35°C° 0 mm 4 mps 750 mmHg 27%
    10:00 +36°C° 0 mm 4 mps 750 mmHg 24%
    11:00 +36°C° 0 mm 5 mps 750 mmHg 22%
    12:00 +37°C° 0 mm 5 mps 750 mmHg 19%
    13:00 +37°C° 0 mm 5 mps 749 mmHg 19%
    14:00 +37°C° 0 mm 5 mps 749 mmHg 18%
    15:00 +39°C° 0 mm 5 mps 749 mmHg 18%
    16:00 +37°C° 0 mm 5 mps 749 mmHg 18%
    17:00 +36°C° 0 mm 5 mps 749 mmHg 19%
    18:00 +36°C° 0 mm 4 mps 749 mmHg 19%
    19:00 +35°C° 0 mm 4 mps 749 mmHg 20%
    20:00 +34°C° 0 mm 4 mps 750 mmHg 20%
    21:00 +33°C° 0 mm 3 mps 750 mmHg 21%
    22:00 +33°C° 0 mm 3 mps 750 mmHg 22%
    23:00 +32°C° 0 mm 4 mps 750 mmHg 23%

    26 July, Thursday

    Time Temperature Precipitation Wind Pressure Humidity
    00:00 +32°C° 0 mm 4 mps 750 mmHg 24%
    01:00 +30°C° 0 mm 4 mps 749 mmHg 25%
    02:00 +29°C° 0 mm 4 mps 749 mmHg 26%
    03:00 +29°C° 0 mm 4 mps 749 mmHg 27%
    04:00 +29°C° 0 mm 4 mps 749 mmHg 28%
    05:00 +28°C° 0 mm 4 mps 749 mmHg 30%
    06:00 +28°C° 0 mm 4 mps 749 mmHg 31%
    07:00 +30°C° 0 mm 4 mps 750 mmHg 28%
    08:00 +32°C° 0 mm 5 mps 750 mmHg 25%
    09:00 +34°C° 0 mm 5 mps 750 mmHg 22%
    10:00 +35°C° 0 mm 5 mps 750 mmHg 22%
    11:00 +36°C° 0 mm 5 mps 750 mmHg 21%
    12:00 +38°C° 0 mm 6 mps 750 mmHg 20%
    13:00 +37°C° 0 mm 5 mps 750 mmHg 21%
    14:00 +36°C° 0 mm 5 mps 749 mmHg 22%
    15:00 +36°C° 0 mm 4 mps 749 mmHg 22%
    16:00 +36°C° 0 mm 4 mps 749 mmHg 24%
    17:00 +35°C° 0 mm 3 mps 749 mmHg 26%
    18:00 +34°C° 0 mm 2 mps 749 mmHg 27%
    19:00 +32°C° 0 mm 2 mps 750 mmHg 30%
    20:00 +32°C° 0 mm 1 mps 750 mmHg 32%
    21:00 +31°C° 0 mm 1 mps 750 mmHg 34%
    22:00 +30°C° 0 mm 1 mps 750 mmHg 36%
    23:00 +29°C° 0 mm 1 mps 750 mmHg 38%

    27 July, Friday

    Time Temperature Precipitation Wind Pressure Humidity
    00:00 +29°C° 0 mm 1 mps 749 mmHg 40%
    01:00 +28°C° 0 mm 1 mps 749 mmHg 42%
    02:00 +28°C° 0 mm 1 mps 749 mmHg 44%
    03:00 +27°C° 0 mm 1 mps 749 mmHg 47%
    04:00 +27°C° 0 mm 1 mps 749 mmHg 47%
    05:00 +27°C° 0 mm 1 mps 749 mmHg 46%
    06:00 +26°C° 0 mm 0 mps 749 mmHg 46%
    07:00 +29°C° 0 mm 1 mps 750 mmHg 40%
    08:00 +31°C° 0 mm 1 mps 750 mmHg 33%
    09:00 +33°C° 0 mm 1 mps 750 mmHg 27%
    10:00 +35°C° 0 mm 2 mps 749 mmHg 25%
    11:00 +36°C° 0 mm 3 mps 749 mmHg 24%
    12:00 +38°C° 0 mm 3 mps 749 mmHg 22%
    13:00 +38°C° 0 mm 4 mps 749 mmHg 23%
    14:00 +38°C° 0 mm 4 mps 748 mmHg 24%
    15:00 +38°C° 0 mm 4 mps 748 mmHg 26%
    16:00 +37°C° 0 mm 4 mps 748 mmHg 28%
    17:00 +36°C° 0 mm 3 mps 748 mmHg 30%
    18:00 +35°C° 0 mm 3 mps 748 mmHg 32%
    19:00 +34°C° 0 mm 2 mps 749 mmHg 35%
    20:00 +32°C° 0 mm 2 mps 749 mmHg 37%
    21:00 +31°C° 0 mm 1 mps 749 mmHg 40%
    22:00 +30°C° 0 mm 1 mps 749 mmHg 42%
    23:00 +30°C° 0 mm 2 mps 749 mmHg 44%
    Show more